GFSSW_700_spd_057.txt.gz
Wind_Speed
6 7 7 8 8 12 18 21 21 20 19 19 17 14 12 12 10 8 5 3 4 6 8 8 7 8 9 8 12 16 21 26 25 25 24 22 21 18 18 21 20 21 20 20 19
5 6 7 9 11 16 21 22 22 20 18 17 15 13 12 11 10 8 6 7 9 9 11 12 10 9 11 12 14 16 20 21 20 18 18 17 18 19 19 18 19 19 18 19 21
5 6 7 10 15 21 23 22 21 20 18 16 15 13 12 12 10 9 10 11 12 12 13 13 13 13 13 14 16 19 20 19 21 22 22 23 22 23 21 22 16 15 18 22 22
3 5 7 11 17 22 23 22 21 19 18 16 15 14 13 12 7 8 11 11 12 14 13 13 13 15 16 16 17 20 19 19 20 21 23 24 24 25 25 18 18 19 21 22 20
4 4 7 12 18 22 22 21 20 19 18 17 16 15 15 14 14 13 13 14 14 12 12 14 15 15 16 15 15 17 18 18 20 21 23 24 23 25 19 17 19 21 21 21 21
5 6 9 11 16 20 21 20 20 19 18 17 16 16 16 14 11 14 15 13 15 13 13 14 14 14 16 15 15 19 20 20 20 20 22 23 23 24 14 16 19 19 19 20 21
6 7 7 8 12 17 19 19 19 19 18 18 17 17 16 14 14 14 14 15 17 15 14 14 13 12 14 17 15 16 20 21 18 17 19 21 25 19 11 15 17 18 19 21 22
6 6 8 11 11 11 15 17 17 18 17 18 18 18 17 13 13 14 15 16 17 15 14 13 12 13 16 17 19 19 19 14 15 19 21 23 33 18 20 20 18 19 22 23 24
6 8 11 12 10 10 10 10 13 13 13 15 15 14 15 14 14 13 13 14 15 13 13 12 14 15 17 17 18 15 15 19 22 23 21 22 34 21 26 28 27 29 31 29 26
8 10 11 8 8 9 10 11 12 12 13 13 15 12 12 13 13 12 12 14 14 13 13 14 16 17 16 16 14 16 23 25 27 24 30 32 36 29 25 28 28 29 31 29 26
10 9 9 8 10 10 11 11 12 13 13 14 14 9 13 13 14 13 15 15 12 12 14 16 19 18 16 17 19 22 24 27 27 28 31 32 39 35 27 31 27 29 31 26 24
8 10 10 10 11 12 12 12 12 12 12 14 15 14 15 16 17 15 14 13 11 13 14 17 21 13 12 14 16 21 26 29 29 25 34 35 41 35 22 20 20 21 23 23 21
10 10 10 10 11 11 12 10 9 10 12 12 13 12 11 12 12 11 11 11 13 15 16 19 19 21 18 17 18 19 23 25 25 29 32 34 41 29 31 16 15 15 16 18 18
10 10 9 11 11 11 8 7 7 8 9 6 5 6 7 8 10 7 10 12 14 14 15 13 9 11 16 18 20 25 20 22 24 24 16 27 17 43 27 22 11 11 14 17 19
7 8 8 9 8 8 7 5 5 5 3 2 3 3 3 3 5 6 8 10 12 13 15 14 19 21 22 20 19 21 20 22 25 26 26 20 9 16 22 23 16 15 12 17 20
9 8 8 8 7 6 5 5 4 3 5 2 2 2 3 3 6 10 11 11 12 14 15 16 16 16 16 19 19 19 20 22 22 16 4 1 2 15 21 19 20 16 16 17 20
11 11 10 8 7 7 7 6 3 6 3 2 3 5 5 7 9 9 8 7 9 10 11 18 14 10 8 9 10 11 14 7 3 1 3 5 8 20 17 21 15 25 24 12 18
11 11 11 10 9 8 8 6 8 4 5 5 5 7 10 11 11 8 8 12 12 11 12 7 6 7 5 15 15 16 11 5 4 3 6 22 9 5 14 14 17 25 19 25 23
12 12 11 11 11 11 10 11 5 4 5 5 8 10 9 4 5 10 11 14 4 10 4 6 4 11 21 16 10 9 7 9 7 12 4 7 10 23 8 10 25 15 22 26 19
13 13 13 13 13 13 15 17 10 8 8 8 7 7 7 9 8 10 14 11 8 9 16 10 11 12 11 11 15 14 14 6 5 4 5 7 15 18 9 31 19 34 38 32 31
14 14 14 13 15 16 19 19 16 15 14 13 14 14 17 16 16 15 9 15 17 9 7 14 12 13 18 20 18 17 14 7 6 9 3 5 7 20 27 21 33 43 35 30 29
14 14 13 14 16 18 20 19 16 16 14 14 16 17 17 17 17 14 13 10 14 18 17 14 12 18 20 20 18 18 14 10 5 5 13 24 32 2 22 35 46 36 30 28 31
16 15 15 15 16 17 17 17 16 16 14 14 13 15 14 14 11 8 8 12 12 11 7 14 7 11 9 10 5 5 22 24 21 25 32 15 22 28 47 39 36 32 34 33 32
18 15 17 18 19 19 18 18 17 18 17 16 17 18 17 16 15 12 14 12 15 20 22 20 22 25 22 26 27 31 34 30 29 27 38 38 55 48 36 38 22 28 24 20 15
20 21 21 15 13 16 18 18 16 15 15 14 15 15 14 15 18 21 21 20 21 21 22 22 28 27 32 32 31 35 35 35 37 42 38 54 49 38 32 27 23 19 14 17 15
24 23 22 21 20 20 20 21 20 19 20 20 20 20 22 25 23 25 23 25 25 22 24 26 30 34 45 40 37 35 39 42 41 41 45 37 38 30 34 33 28 24 24 28 26
24 22 22 24 24 23 23 21 22 21 22 22 23 23 22 22 23 23 25 26 27 30 32 35 37 38 40 31 26 28 40 33 31 24 23 35 39 35 28 28 26 28 32 32 34

GFSSW_700_spd_063.txt.gz
Wind_Speed
5 6 7 6 7 7 10 13 14 16 18 17 14 12 11 9 6 4 1 3 5 7 8 9 9 8 7 7 7 9 10 14 15 16 17 18 23 24 18 19 21 23 20 24 25
6 6 6 7 7 8 12 14 14 16 17 16 13 9 9 9 5 3 6 7 7 9 10 11 12 12 8 13 12 12 11 14 15 16 17 17 24 17 26 24 24 22 24 21 23
6 6 6 7 8 10 14 15 15 16 16 15 11 9 8 7 4 10 11 10 10 10 11 12 11 11 12 14 15 14 16 14 18 20 21 21 24 24 25 26 22 23 23 24 25
6 6 7 7 8 12 16 17 16 15 14 13 11 10 9 7 2 11 14 12 9 11 11 11 10 11 12 12 16 18 15 18 19 21 21 21 24 25 27 21 19 24 22 31 22
6 5 6 7 9 14 17 16 16 15 14 13 12 12 10 7 10 14 12 14 13 11 11 12 11 11 12 12 18 18 16 18 19 20 21 22 21 25 23 19 18 19 21 25 24
5 4 4 6 10 15 16 15 15 14 14 13 14 14 12 10 16 16 16 15 14 12 13 12 12 13 14 14 15 18 19 20 21 19 18 21 22 26 15 16 16 18 17 20 23
6 5 5 7 10 14 15 16 15 14 14 16 16 16 15 15 16 16 17 17 16 15 15 14 13 12 14 15 14 19 22 19 14 10 22 22 29 20 15 19 20 22 24 25 25
6 5 6 6 8 12 14 14 13 14 16 17 18 16 17 18 17 18 17 16 15 15 14 14 13 13 12 14 18 17 13 7 13 22 20 23 34 18 17 23 25 25 28 31 29
7 6 6 6 7 8 10 12 13 15 17 18 17 17 16 14 15 15 15 15 14 13 14 14 14 14 13 13 13 12 11 15 15 20 24 27 35 23 22 26 25 25 26 29 32
7 8 8 8 9 7 7 9 10 12 14 15 14 13 14 14 10 10 11 13 13 13 16 14 14 13 12 8 13 16 20 20 20 17 29 32 36 28 25 24 22 21 23 25 29
9 8 9 9 8 9 8 7 9 12 15 13 10 10 15 12 11 11 12 13 14 15 13 17 13 12 12 15 16 17 19 21 21 22 27 30 36 23 9 11 14 14 15 20 25
11 11 11 10 11 9 9 10 12 12 15 13 15 17 19 18 18 18 16 15 15 10 11 15 14 15 16 16 20 15 17 18 19 20 30 29 30 6 9 14 13 11 11 11 13
12 12 13 12 10 10 11 12 11 12 16 17 16 17 17 16 16 17 11 12 12 11 13 16 14 20 18 12 15 14 16 18 19 24 23 21 15 5 6 8 11 13 13 12 12
13 13 13 11 11 11 11 10 10 9 9 11 9 9 13 12 12 11 11 10 11 8 9 12 10 10 14 17 14 16 13 17 19 16 11 16 9 5 5 6 10 15 15 16 14
13 12 11 13 12 10 8 9 8 7 5 6 7 5 5 9 3 4 5 7 8 9 11 10 17 18 17 13 12 11 14 18 21 17 14 2 6 4 8 4 7 10 17 18 18
14 12 13 12 9 9 9 9 9 4 6 5 5 5 6 6 6 5 7 8 9 10 11 10 15 14 14 11 6 15 16 17 12 4 5 5 3 11 6 7 7 13 15 16 17
14 12 12 10 9 9 8 8 4 8 5 4 5 6 6 6 7 7 9 8 2 6 4 10 9 6 6 6 15 10 11 8 6 5 4 6 8 22 15 13 16 16 17 22 27
13 12 11 11 11 9 9 9 9 6 4 4 4 4 4 5 9 9 5 4 9 9 8 5 7 6 4 14 10 12 4 7 6 8 16 11 8 4 7 20 7 17 24 25 32
13 12 14 13 13 12 12 11 5 5 8 6 5 5 6 7 7 5 7 7 9 4 4 7 6 9 18 13 9 6 5 10 13 19 10 11 11 16 13 2 12 23 21 30 40
14 13 13 14 15 15 15 14 12 12 10 7 5 7 6 6 4 4 5 8 9 7 7 8 12 13 14 12 12 11 15 7 6 5 9 12 20 19 16 16 24 25 27 37 44
14 14 14 15 15 16 19 13 16 17 15 12 11 10 9 7 9 9 6 9 12 14 7 6 9 10 15 12 9 13 9 6 9 11 7 12 9 7 19 30 25 27 31 39 36
17 19 16 17 19 21 20 21 19 18 15 16 17 16 11 8 7 8 10 9 8 9 10 10 9 15 16 19 19 18 17 15 16 16 17 24 37 20 13 18 24 29 30 28 34
21 20 16 17 21 23 23 20 18 20 17 17 15 13 13 12 7 9 10 13 13 13 6 6 5 12 8 13 10 10 7 13 18 23 30 23 28 34 29 34 36 34 29 36 27
22 19 23 24 25 22 19 20 22 19 17 18 19 17 15 16 15 9 12 12 12 14 14 17 16 19 22 25 25 28 26 24 23 28 36 37 51 39 36 40 38 33 32 24 31
27 26 27 16 27 26 25 20 18 20 21 19 20 19 16 11 12 16 15 18 19 21 22 19 18 20 23 26 27 30 33 31 32 37 37 50 43 43 35 28 28 27 29 37 41
31 32 30 30 26 21 22 28 26 22 21 19 18 17 16 18 14 10 14 14 13 15 17 22 21 18 27 28 28 31 34 31 32 31 32 33 34 23 23 24 32 36 37 35 41
33 33 31 30 29 28 26 25 24 21 25 23 21 21 21 20 24 26 26 24 24 23 17 16 16 19 26 13 18 24 15 11 16 18 21 28 27 24 34 37 37 36 42 43 46

GFSSW_700_spd_069.txt.gz
Wind_Speed
5 5 5 5 5 5 6 10 14 18 19 17 15 12 12 9 7 4 3 3 6 6 4 4 3 1 1 3 3 6 10 13 8 9 16 18 20 25 29 28 23 21 25 23 21
6 6 5 5 6 6 9 12 15 18 19 17 14 13 11 8 6 4 1 3 5 7 6 5 5 3 2 5 5 8 12 12 9 15 21 21 21 23 27 27 22 21 22 22 20
8 7 6 6 7 8 11 14 16 18 19 16 13 12 10 8 6 3 3 6 7 8 7 8 7 7 7 6 8 14 14 12 12 15 21 20 20 21 23 22 18 20 22 23 20
9 8 6 7 8 9 13 17 17 18 18 16 13 11 10 8 3 1 4 8 7 7 11 8 8 8 10 9 6 17 16 19 14 15 19 20 21 21 20 20 19 19 20 25 23
8 6 7 7 8 11 16 18 18 18 17 16 14 11 11 10 8 6 9 12 13 13 12 11 9 12 12 12 11 17 17 15 17 17 19 21 14 22 16 11 13 13 17 20 23
6 5 7 7 8 12 17 18 18 18 17 15 14 13 13 11 10 9 13 17 15 12 13 11 12 12 16 14 15 17 16 17 16 12 14 20 20 19 13 14 13 14 13 18 19
5 5 6 5 8 14 18 18 17 17 16 15 14 14 15 10 13 13 16 17 16 15 14 13 13 12 15 14 12 16 19 5 8 15 21 24 23 22 21 19 24 22 21 22 23
6 6 8 7 11 16 17 16 16 16 15 15 15 17 17 14 17 15 18 17 17 15 13 13 12 13 13 13 13 15 9 11 16 15 22 25 29 26 23 29 21 22 25 23 23
8 8 8 8 10 14 15 16 15 15 16 16 16 18 16 16 17 16 17 17 12 12 10 11 12 12 10 7 9 7 10 17 23 23 18 22 29 24 29 18 10 12 15 16 15
9 9 9 8 9 11 13 14 14 15 16 16 16 15 15 12 8 7 7 8 10 10 9 11 11 5 2 9 10 16 22 25 26 19 22 24 28 26 13 4 7 13 14 14 14
10 10 9 10 10 10 10 10 11 12 13 10 10 7 16 10 7 7 5 7 11 13 12 9 8 5 4 10 15 20 23 26 19 16 22 26 29 15 3 5 9 7 6 8 11
12 11 11 11 11 10 9 9 9 9 11 10 11 15 17 18 14 15 14 14 15 12 8 10 12 6 7 11 18 20 19 18 19 15 23 27 21 1 2 7 6 9 8 11 13
14 13 13 12 11 10 10 8 9 10 14 10 14 16 19 20 19 19 16 11 10 12 9 15 7 10 16 13 13 14 16 17 19 23 22 19 2 4 1 2 7 11 10 12 13
16 15 14 15 13 13 9 8 8 7 8 6 6 8 14 19 19 16 13 12 10 8 7 9 6 9 11 14 13 15 9 12 18 20 11 17 6 1 7 7 5 9 14 16 18
17 16 15 14 13 11 9 8 4 2 3 3 7 8 6 10 5 4 9 8 7 10 9 5 8 10 13 14 8 10 11 14 16 12 14 4 4 4 12 8 4 9 17 18 19
16 16 15 14 13 10 8 7 7 5 7 4 3 5 7 7 9 5 6 6 7 11 13 9 11 12 10 6 5 7 12 12 7 6 3 2 2 5 9 6 6 13 18 19 20
16 16 15 14 11 11 10 10 7 7 3 4 5 5 7 7 8 8 7 7 8 5 5 5 10 10 9 6 4 11 11 4 3 1 4 1 9 12 11 16 15 17 19 25 27
16 17 16 14 13 13 13 14 9 4 8 4 2 7 9 7 8 7 9 10 8 9 8 5 5 5 4 5 8 10 4 1 3 2 3 17 7 6 9 9 8 26 17 19 24
17 17 16 14 15 15 16 17 8 5 8 8 8 8 9 10 9 7 8 9 8 10 7 3 5 4 7 11 7 3 4 3 6 11 2 6 5 6 10 3 15 13 17 23 28
16 17 17 17 17 18 19 22 15 10 8 6 8 6 5 9 7 7 4 5 10 13 13 8 7 10 9 8 9 8 6 5 4 2 3 5 9 15 6 8 14 17 28 35 40
16 17 17 19 20 22 28 27 21 18 13 10 12 10 11 6 8 11 5 7 11 12 11 12 11 8 10 9 9 8 7 5 4 6 4 2 6 7 15 15 21 31 36 39 40
18 18 18 20 24 27 30 28 22 21 18 17 18 17 16 16 12 15 15 13 7 6 9 10 8 12 17 16 16 13 11 11 7 5 6 6 21 11 16 17 23 38 42 42 38
21 21 20 20 26 28 27 25 25 23 22 20 18 17 18 19 15 14 18 18 17 14 8 7 6 5 4 7 3 5 4 7 10 16 18 10 12 8 7 26 36 39 34 30 34
23 21 25 24 26 28 27 26 24 22 24 21 23 20 19 18 18 11 16 15 17 16 14 15 16 18 17 14 19 24 25 25 21 19 23 36 43 42 34 27 30 30 31 34 39
26 27 26 18 33 28 22 20 21 25 21 21 24 23 19 19 18 22 21 18 19 18 17 17 22 23 25 24 24 28 33 33 33 34 34 42 36 31 31 28 28 34 36 40 41
29 30 30 28 26 15 25 31 26 23 20 19 22 19 16 22 21 10 16 20 18 18 15 18 20 19 22 25 24 28 26 25 25 26 29 27 28 18 22 26 33 38 39 38 43
32 32 32 29 29 28 29 24 21 28 30 28 26 20 20 21 19 23 22 18 22 22 20 21 22 15 12 9 16 22 3 1 5 7 12 16 19 26 29 33 35 37 34 41 52

GFSSW_700_spd_072.txt.gz
Wind_Speed
6 4 6 8 9 8 8 10 14 18 19 17 17 16 15 13 10 7 3 2 4 5 4 3 4 4 5 7 8 10 13 15 14 13 17 16 19 19 25 28 30 28 27 25 21
6 5 7 8 9 9 10 13 16 19 20 18 16 15 15 12 9 5 2 0 3 5 4 4 4 5 7 6 9 10 12 10 8 11 20 22 21 22 26 26 24 24 21 22 21
8 7 8 10 10 9 11 15 17 20 20 19 16 15 14 11 7 5 5 3 4 5 6 9 8 8 6 8 7 11 11 9 11 15 18 20 19 19 23 21 18 21 22 24 23
9 8 10 10 13 11 13 17 19 21 21 19 16 15 14 12 6 5 3 3 5 7 11 10 9 10 10 10 9 15 12 14 10 12 17 19 19 15 16 14 18 18 19 21 20
9 10 10 11 13 12 14 18 20 21 22 20 17 16 14 13 10 6 5 6 9 12 12 12 12 13 11 12 13 18 14 15 15 16 18 17 10 17 10 12 14 17 19 19 19
10 10 10 10 12 12 15 19 20 21 21 20 19 17 15 13 12 10 8 10 12 13 13 14 12 14 16 12 14 16 16 14 9 4 10 15 16 14 6 13 18 23 22 22 21
10 11 11 9 10 13 16 19 20 21 20 19 18 18 17 12 12 13 13 13 15 16 15 16 14 13 15 13 12 14 18 4 1 9 15 23 19 16 15 20 24 23 23 25 23
11 10 8 8 10 13 18 20 20 19 19 18 18 19 19 16 18 16 16 15 15 14 16 14 13 13 13 12 14 12 8 7 7 16 23 22 23 19 22 21 18 15 14 14 18
10 9 7 7 9 13 17 20 19 19 18 18 19 19 19 19 17 16 15 16 14 11 12 12 13 13 12 9 8 6 11 16 18 23 18 20 25 16 17 19 7 8 12 13 10
12 10 9 8 10 14 18 18 17 18 18 18 20 17 17 8 8 6 7 7 7 8 9 12 14 12 7 7 6 11 18 21 24 21 23 20 21 17 13 8 4 8 12 13 13
12 12 11 10 10 13 15 16 16 17 19 19 11 11 16 7 5 6 7 7 8 9 11 15 13 11 7 8 8 15 20 24 22 21 20 22 23 14 4 0 5 7 6 8 12
14 13 12 11 12 12 12 12 12 13 15 18 21 20 16 13 12 11 11 12 13 15 13 14 16 8 9 7 13 18 20 20 18 11 23 22 17 2 3 2 3 1 3 8 10
15 13 13 12 13 13 12 12 13 13 15 16 19 20 16 18 17 17 15 15 14 13 12 18 8 9 9 12 15 14 17 16 17 21 21 14 3 2 7 6 4 5 7 10 15
16 15 15 14 14 12 11 12 12 10 9 9 15 20 20 19 20 16 15 15 15 10 10 11 7 9 9 10 13 17 7 10 17 19 9 14 3 7 11 10 8 7 11 16 20
18 17 17 15 14 12 13 13 11 7 3 6 12 10 9 14 8 6 15 13 13 12 10 5 7 8 10 12 11 7 7 14 19 16 14 5 4 8 13 13 10 10 11 15 17
20 19 18 17 15 13 14 12 11 5 7 7 6 7 9 9 11 7 8 11 9 12 15 12 14 15 10 8 7 6 11 15 9 6 3 3 4 3 13 13 8 8 9 16 19
21 20 19 17 15 16 14 15 9 8 5 6 7 8 8 10 13 10 8 10 9 5 9 8 9 13 11 8 6 6 11 5 3 2 4 1 9 6 5 9 7 6 8 11 17
21 21 21 19 18 18 18 19 10 5 9 4 4 9 10 10 11 12 12 13 12 13 10 6 4 6 6 6 5 12 5 1 3 2 4 15 7 2 2 5 4 6 12 16 23
21 22 21 19 20 20 22 23 12 8 7 9 8 11 13 12 9 10 12 12 10 12 9 4 4 4 7 6 7 3 3 4 4 5 3 6 3 1 3 7 6 9 16 24 32
21 22 21 22 22 24 24 26 18 12 5 9 9 9 9 13 12 9 10 5 11 12 13 9 7 10 11 9 8 9 6 3 3 1 4 6 8 7 9 9 5 18 28 33 33
21 21 23 24 25 27 29 31 28 17 14 9 9 9 11 8 14 13 6 7 9 10 11 12 13 7 8 7 6 7 10 8 5 5 4 2 7 9 11 11 18 24 35 34 30
21 22 22 25 28 31 33 31 28 22 24 17 15 14 15 12 12 15 16 13 7 13 14 13 8 10 13 14 14 13 13 13 9 6 8 3 13 15 23 24 15 36 32 30 26
23 23 22 25 31 31 30 29 27 26 24 23 16 14 18 20 15 15 20 20 19 16 9 10 9 4 4 6 7 8 11 13 13 13 15 7 10 9 12 10 35 29 25 26 29
26 24 28 26 28 28 28 30 27 26 25 23 21 19 19 19 18 14 15 15 19 18 18 16 18 17 15 8 11 13 14 19 21 18 22 36 39 37 29 31 30 26 23 28 33
30 28 27 20 31 28 26 26 25 27 24 21 23 24 23 22 20 23 22 18 17 17 18 16 20 18 20 21 24 28 28 29 33 35 35 41 41 39 31 29 21 24 31 33 36
31 31 29 30 22 20 32 29 26 21 19 22 23 17 17 21 22 17 16 24 24 19 21 22 21 19 23 23 26 34 32 33 35 34 38 35 34 25 19 20 25 29 34 36 38
31 31 30 27 28 29 25 20 21 26 24 21 19 19 20 18 17 20 21 19 18 18 20 22 21 19 17 18 20 25 13 15 15 15 15 16 15 19 23 26 29 33 32 35 40

GFSSW_700_spd_075.txt.gz
Wind_Speed
11 9 10 10 9 10 11 11 14 17 18 19 19 18 16 14 12 8 5 4 3 3 3 2 1 2 5 8 10 14 16 18 16 15 16 17 20 18 22 23 26 27 28 26 23
10 8 9 10 11 10 11 13 16 18 20 19 19 18 17 14 11 7 5 2 1 1 1 4 3 3 7 8 11 12 14 10 10 11 14 18 23 22 23 22 21 21 23 24 23
12 11 10 10 10 11 12 14 18 20 21 19 19 17 17 13 10 8 6 2 2 2 3 6 5 4 5 9 10 13 14 11 11 13 17 18 15 17 19 16 14 19 20 21 22
13 12 11 10 11 11 13 16 18 21 22 21 20 17 17 14 9 10 8 5 3 5 8 8 8 9 9 9 11 16 12 14 11 12 16 16 18 15 13 10 14 15 16 18 18
13 12 11 11 11 12 14 17 19 21 23 22 20 18 17 15 12 9 8 8 6 8 9 9 10 12 11 10 13 16 12 13 13 14 15 12 8 14 8 8 11 14 20 22 22
12 12 11 11 12 14 16 18 20 21 23 22 20 19 18 16 14 14 11 10 10 10 12 12 13 12 15 12 12 14 15 12 9 3 8 12 16 15 6 12 15 23 25 25 22
11 12 12 11 13 15 17 20 21 21 22 22 22 21 19 15 14 16 15 13 13 13 15 15 14 13 14 13 12 12 17 10 7 7 14 20 17 11 9 13 20 21 14 14 13
11 11 12 13 13 14 17 21 21 20 21 21 22 22 21 19 18 16 16 16 16 15 16 15 12 12 13 13 15 13 11 5 5 12 17 18 16 11 16 17 15 8 10 12 13
12 13 12 12 12 14 17 20 20 20 20 20 21 21 21 20 19 18 18 17 17 15 13 12 11 13 14 13 11 7 8 14 15 15 16 18 20 13 16 15 3 6 10 15 14
15 14 13 11 12 13 17 19 19 20 21 22 22 18 18 9 14 18 17 14 10 8 9 12 13 14 13 10 5 8 14 16 17 18 19 18 19 15 16 6 2 5 9 11 13
15 14 14 12 12 12 15 18 19 21 22 23 10 18 11 5 12 15 12 11 10 8 9 14 15 14 5 8 10 10 16 19 16 20 16 21 20 14 2 8 5 7 6 8 11
17 16 15 14 12 13 15 17 18 18 20 22 23 24 14 17 17 12 12 11 10 12 14 16 16 11 11 11 10 14 17 17 15 10 20 18 13 4 7 5 5 4 3 5 8
17 17 16 16 15 14 14 15 14 15 18 16 21 22 20 22 19 16 15 14 15 15 13 16 7 7 7 10 13 14 17 16 14 17 19 12 1 6 8 7 5 2 2 5 10
19 18 17 16 15 14 15 13 13 12 10 10 18 20 21 21 23 20 21 19 20 12 11 11 7 9 9 9 9 16 9 9 14 17 10 13 3 9 11 10 8 4 5 7 11
22 20 19 18 14 13 13 13 12 8 3 5 13 13 16 21 17 9 19 20 17 14 12 5 5 5 7 8 10 10 10 12 18 17 11 4 3 5 14 13 10 6 5 6 11
23 22 20 18 16 15 13 12 11 6 6 5 8 12 13 14 18 9 9 17 13 15 15 12 13 13 12 9 8 8 8 17 14 7 3 1 1 4 10 9 11 6 5 9 12
22 22 21 19 17 16 15 15 9 7 5 5 9 10 11 12 15 11 8 11 10 9 9 9 10 12 13 10 9 6 9 5 3 2 4 2 7 2 6 9 11 4 5 8 13
22 21 20 20 20 19 18 19 10 7 10 4 8 10 10 9 12 14 13 13 15 14 9 5 4 8 8 11 6 7 6 3 3 2 5 10 6 2 4 8 11 5 4 11 19
22 22 22 22 22 22 22 24 13 10 7 10 7 8 10 11 8 12 14 15 13 15 9 5 4 5 7 7 6 4 4 4 3 4 3 5 4 4 4 11 8 5 9 19 26
23 22 23 24 24 24 27 30 20 11 7 10 11 6 6 11 13 8 9 5 14 15 13 7 5 9 10 11 12 11 5 4 4 2 4 6 9 8 12 14 10 8 17 25 27
24 24 26 26 27 29 33 34 30 14 12 9 11 9 9 6 14 13 7 6 8 8 13 13 12 6 7 7 8 10 11 9 5 5 4 2 6 6 12 18 16 14 26 31 30
24 27 27 29 32 36 36 31 30 25 15 15 12 11 11 11 11 14 13 10 5 9 12 13 8 9 9 12 13 15 15 15 11 6 9 4 11 15 14 18 21 19 34 33 27
25 27 27 30 37 37 32 32 31 26 21 28 22 17 17 16 11 13 17 18 17 16 9 11 9 3 3 8 15 15 15 17 20 17 17 7 6 5 5 11 18 34 35 27 22
27 27 30 31 35 32 33 32 31 29 29 26 23 23 21 19 18 13 17 14 17 18 18 16 19 17 15 11 7 9 9 15 17 14 21 31 32 28 29 33 37 35 28 23 26
31 29 29 26 33 30 30 28 31 30 25 22 26 29 24 22 20 22 21 20 18 16 18 19 21 20 20 21 23 25 26 27 33 37 34 38 40 35 36 36 29 23 23 26 29
33 34 32 28 22 30 30 32 30 21 22 28 27 23 20 21 21 19 13 16 20 18 20 22 22 23 24 22 24 31 36 36 37 39 43 42 43 29 21 16 15 22 25 28 31
35 35 35 29 31 28 28 32 31 23 23 21 17 17 17 14 12 15 18 19 18 16 18 22 24 22 21 21 22 28 29 18 25 30 30 28 19 11 13 17 19 21 26 29 36